Regional Weather Roundup
Issued by NWS

Home | Current Version | Previous Version | Graphics & Text | Print | Product List | Glossary On
Versions: 1 2 3 4 5 6 7 8 9 10 11 12 13 14 15 16 17 18 19 20 21 22 23 24 25 26 27 28 29 30 31 32 33 34 35 36 37 38 39 40 41 42 43 44 45 46 47 48 49 50
000
ASUS43 KFSD 040002
RWRSD

WEATHER ROUNDUP FOR SOUTH DAKOTA
NATIONAL WEATHER SERVICE SIOUX FALLS SD
600 PM CST TUE MAR 03 2015

NOTE: "FAIR" INDICATES FEW OR NO CLOUDS BELOW 12,000 FEET WITH NO
SIGNIFICANT WEATHER AND/OR OBSTRUCTIONS TO VISIBILITY.


SDZ001>005-009-010-012>017-040100-
NORTHWEST AND NORTH CENTRAL SOUTH DAKOTA

CITY           SKY/WX    TMP DP  RH WIND       PRES   REMARKS
BUFFALO          N/A     14  -6  40 NW22G31   29.88S WCI  -4
FAITH            N/A     15  -4  42 NW21G29   29.97S WCI  -2
MOBRIDGE       CLEAR     18  -3  39 NW22G28   29.97R WCI   1
$$

SDZ012>016-024>037-041>051-057-063-072>074-040100-
SOUTHWEST AND SOUTH CENTRAL SOUTH DAKOTA

CITY           SKY/WX    TMP DP  RH WIND       PRES   REMARKS
RAPID CTY ARPT PTCLDY    14   2  58 N24G31    29.95R WCI  -5
PIERRE         CLEAR     19   1  45 NW20G28   30.01R WCI   3
CUSTER         MOCLDY    11  -5  48 W10       29.78R WCI  -3
PHILIP         PTCLDY    18   3  52 NW20G25   30.02R WCI   2
PINE RIDGE     FLURRIES  16   4  59 NE5       29.97R WCI   9
SPEARFISH      FAIR      10   0  61 MISG      29.93S
WINNER         MOCLDY    18   4  54 NW13      30.02S WCI   5
$$

SDZ004>011-016>023-039-040-040100-
NORTHEAST SOUTH DAKOTA

CITY           SKY/WX    TMP DP  RH WIND       PRES   REMARKS
ABERDEEN       CLEAR     13   1  59 NW23G30   30.02R WCI  -6
WATERTOWN      PTCLDY     9   0  67 NW21      29.95R WCI -11
SISSETON         N/A     10   0  63 N22       29.97  WCI -10
$$

SDZ017-020-022-023-036>040-048>070-040100-
SOUTHEAST SOUTH DAKOTA

CITY           SKY/WX    TMP DP  RH WIND       PRES   REMARKS
SIOUX FALLS    MOCLDY    13   4  67 NW20      30.02R WCI  -5
HURON          CLEAR     15   2  56 N12       30.03S WCI   2
MITCHELL       PTCLDY    17   5  59 NW12      30.06R WCI   4
YANKTON        PTCLDY    19   3  49 NW17G26   30.05R WCI   4
$$

ABBREVIATIONS USED IN REMARKS
   TC - TEMPERATURE IN CELSIUS
  WCI - WIND CHILL INDEX
   HX - HEAT INDEX
  VSB - VISIBILITY



USA.gov is the U.S. government's official web portal to all federal, state and local government web resources and services.